sat.trackr.live / text

‹ back to catalog

STARLINK-35872

NORAD 66580 · 2025-268Z

PAYLOAD ACTIVE UNKNOWN

§ Identity

Operator
Country
US
Launch date
2025-11-21
Launch site
AFETR
Launch vehicle
Mass (kg)
RCS (m²)

Purposes: comms

External: N2YO · Heavens-Above · Gunter

§ Orbital elements

Epoch: 2026-09-20T05:30:22.234464Z

Period
94.27 min
Inclination
42.9937°
Eccentricity
0.0002211
Mean motion
15.27602557 rev/d
Perigee alt
481.5 km
Apogee alt
484.5 km
Semi-major
6,861.1 km
B*
4.4019e-4
RAAN
328.2582°
Arg perigee
150.2672°
Mean anomaly
209.8305°
Rev number
4,771

§ Raw data

STARLINK-358721 66580U 25268Z   26263.22942401  .00011879  00000+0  44019-3 0  99972 66580  42.9937 328.2582 0002211 150.2672 209.8305 15.27602557 47716

JSON: /api/v1/satellites/66580 · /tle

For live sub-satellite position, see the globe view (requires WebGL).

§ Visibility from observer

Set your observer location to see the next 7 days of passes ≥ 10°. The values pass through the URL so the page stays shareable.

No JS? Fill the form by hand. The geolocation button needs JavaScript.